This demonstration page uses our WeatherBlox Daily Observations layout. Learn more.

Left ArrowRight Arrow

Hourly Observations for November 21, 2015

Temp ( °F °C ) Dew Point ( °F °C ) Humidity (%) Winds ( mph kmh ) Pressure ( in mb ) Visibility ( mi km ) Precip ( " mm )
12:53 am 00:53 Clear 42 5.6 34 1.1 73 73 NNW 9 15 29.93 1014 10 16 0.00 0.00
1:53 am 01:53 undefined 45 7.2 35 1.7 68 68 N 15 24 29.96 1015 10 16 0.00 0.00
2:53 am 02:53 Clear 46 7.8 32 0 58 58 NNE 28 44 30.04 1017 10 16 0.00 0.00
3:53 am 03:53 Clear 43 6.1 28 -2.2 56 56 NNE 28 44 30.09 1019 10 16 0.00 0.00
4:53 am 04:53 Clear 42 5.6 26 -3.3 53 53 N 23 37 30.17 1022 10 16 0.00 0.00
5:53 am 05:53 Clear 40 4.4 24 -4.4 53 53 NNE 14 22 30.26 1025 10 16 0.00 0.00
6:53 am 06:53 Clear 38 3.3 24 -4.4 57 57 N 10 17 30.34 1027 10 16 0.00 0.00
7:53 am 07:53 Sunny 37 2.8 24 -4.4 59 59 NNW 6 9 30.41 1030 10 16 0.00 0.00
8:53 am 08:53 Mostly Sunny 41 5 23 -5 49 49 N 14 22 30.44 1031 10 16 0.00 0.00
9:53 am 09:53 Sunny 44 6.7 23 -5 43 43 N 14 22 30.46 1031 10 16 0.00 0.00
10:53 am 10:53 Sunny 46 7.8 21 -6.1 37 37 NNE 15 24 30.46 1032 10 16 0.00 0.00
11:53 am 11:53 Sunny 48 8.9 20 -6.7 33 33 NNE 10 17 30.45 1031 10 16 0.00 0.00
12:53 pm 12:53 Sunny 49 9.4 18 -7.8 29 29 VRB 6 9 30.41 1030 10 16 0.00 0.00
1:53 pm 13:53 Sunny 50 10 17 -8.3 27 27 NNE 9 15 30.37 1028 10 16 0.00 0.00
2:53 pm 14:53 Sunny 52 11.1 15 -9.4 23 23 NE 14 22 30.33 1027 10 16 0.00 0.00
3:53 pm 15:53 Sunny 51 10.6 17 -8.3 26 26 NNE 12 19 30.33 1027 10 16 0.00 0.00
4:53 pm 16:53 Sunny 49 9.4 17 -8.3 28 28 NNE 8 13 30.33 1027 10 16 0.00 0.00
5:53 pm 17:53 Clear 45 7.2 18 -7.8 34 34 ENE 6 9 30.32 1027 10 16 0.00 0.00
6:53 pm 18:53 Clear 41 5 19 -7.2 41 41 ENE 5 7 30.34 1028 10 16 0.00 0.00
7:53 pm 19:53 Clear 39 3.9 19 -7.2 45 45 E 5 7 30.35 1028 10 16 0.00 0.00
8:53 pm 20:53 Clear 38 3.3 19 -7.2 46 46 ESE 5 7 30.35 1028 10 16 0.00 0.00
9:53 pm 21:53 Clear 35 1.7 20 -6.7 54 54 SSE 3 6 30.35 1028 10 16 0.00 0.00
10:53 pm 22:53 Clear 33 0.6 21 -6.1 61 61 SE 6 9 30.34 1027 10 16 0.00 0.00
11:53 pm 23:53 Clear 32 0 20 -6.7 61 61 Calm 30.32 1027 10 16 0.00 0.00

Powered by AerisWeather